EHI
6 6 6 6 4 1 0 1 1 1 0 0 0 0 0 0 0 0 0 0 0 0 0 0 0 0 0 0 0 0 0 0 0 0 0 0 0 0
5 5 5 5 3 1 2 3 2 1 0 0 0 0 0 0 0 0 0 0 0 0 0 0 0 0 0 0 0 0 0 0 0 0 0 0 0 0
3 3 3 2 1 1 3 3 2 0 0 0 0 0 0 0 0 0 0 0 0 0 0 0 0 0 0 0 0 0 0 0 0 0 0 0 0 0
3 3 2 1 0 0 1 1 0 0 0 0 0 0 0 0 0 0 0 0 0 0 0 0 0 0 0 0 0 0 0 0 0 0 0 0 0 0
2 2 1 0 0 0 0 0 0 0 0 0 0 0 0 0 0 0 0 0 0 0 0 0 0 0 0 0 0 0 0 0 0 0 0 0 0 0
1 1 0 0 0 0 0 0 0 0 0 0 0 0 0 0 0 0 0 0 0 0 0 0 0 0 0 0 0 0 0 0 0 0 0 0 0 0
0 0 0 0 0 0 0 0 0 0 0 0 0 0 0 0 0 0 0 0 0 0 0 0 0 0 0 0 0 0 0 0 0 0 0 0 0 0
0 0 0 0 0 0 0 0 0 0 0 0 0 0 0 0 0 0 0 0 0 0 0 0 0 0 0 0 0 0 0 0 0 0 0 0 0 0
0 0 0 0 0 0 0 0 0 0 0 0 0 0 0 0 0 0 0 0 0 0 0 0 0 0 0 0 0 0 0 0 0 0 0 0 0 0
0 0 0 0 0 0 0 0 0 0 0 0 0 0 0 0 0 0 0 0 0 0 0 0 0 0 0 0 0 0 0 0 0 0 0 0 0 0
0 0 0 0 0 0 0 0 0 0 0 0 0 0 0 0 0 0 0 0 0 0 0 0 0 0 0 0 0 0 0 0 0 0 0 0 0 0
0 0 0 0 0 0 0 0 0 0 0 0 0 0 0 0 0 0 0 0 0 0 0 0 0 0 0 0 0 0 0 0 0 0 0 0 0 0
0 0 0 0 0 0 0 0 0 0 0 0 0 0 0 0 0 0 0 0 0 0 0 0 0 0 0 0 0 0 0 0 0 0 0 0 0 0
0 0 0 0 0 0 0 0 0 0 0 0 0 0 0 0 0 0 0 0 0 0 0 0 0 0 0 0 0 0 0 0 0 0 0 0 0 0
0 0 0 0 0 0 0 0 0 0 0 0 0 0 0 0 0 0 0 0 0 0 0 0 0 0 0 0 0 0 0 0 0 0 0 0 0 0
0 0 0 0 0 0 0 0 0 0 0 0 0 0 0 0 0 0 0 0 0 0 0 0 0 0 0 0 0 0 0 0 0 0 0 0 0 0
0 0 0 0 0 0 0 0 0 0 0 0 0 0 0 0 0 0 0 0 0 0 0 0 0 0 0 0 0 0 0 0 0 0 0 0 0 0
0 0 0 0 0 0 0 0 0 0 0 0 0 0 0 0 0 0 0 0 0 0 0 0 0 0 0 0 0 0 0 0 0 0 0 0 0 0
0 0 0 0 0 0 0 0 0 0 0 0 0 0 0 0 0 0 0 0 0 0 0 0 0 0 0 0 0 0 0 0 0 0 0 0 0 0
0 0 0 0 0 0 0 0 0 0 0 0 0 0 0 0 0 0 0 0 0 0 0 0 0 0 0 0 0 0 0 0 0 0 0 0 0 0
0 0 0 0 0 0 0 0 0 0 0 0 0 0 0 0 0 0 0 0 0 0 0 0 0 0 0 0 0 0 0 0 0 0 0 0 0 0
0 0 0 0 0 0 0 0 0 0 0 0 0 0 0 0 0 0 0 0 0 0 0 0 0 0 0 0 0 0 0 0 0 0 0 0 0 0
0 0 0 0 0 0 0 0 0 0 0 0 0 0 0 0 0 0 0 0 0 0 0 0 0 0 0 0 0 0 0 0 0 0 0 0 0 0
Wind_Speed
1 0 0 0 1 1 2 3 3 2 1 1 0 1 1 2 3 3 3 6 7 7 7 7 7 7 7 6 6 5 5 6 6 6 7 7 6 6
1 2 1 1 0 1 1 1 2 3 2 1 0 1 2 3 4 4 4 8 8 8 7 7 7 7 7 7 7 7 7 7 6 6 7 7 7 7
2 2 2 2 1 1 1 1 1 2 3 1 1 1 2 3 3 3 4 4 5 8 8 7 7 7 6 6 6 6 7 7 7 6 6 7 7 7
3 4 4 3 3 2 2 2 2 1 4 4 1 1 2 2 2 3 3 3 3 6 7 7 7 7 6 6 6 6 6 7 7 7 7 7 7 7
4 4 4 4 4 3 3 3 3 3 3 4 2 1 2 2 2 3 3 3 3 4 6 7 7 7 7 6 5 5 5 6 6 7 7 7 7 7
5 4 4 3 3 3 4 4 4 5 4 4 3 2 2 2 2 2 2 2 2 3 4 4 6 6 6 6 5 5 5 4 5 5 6 6 6 6
5 5 5 6 6 4 4 4 5 5 4 4 3 3 2 2 1 1 2 1 2 2 2 2 3 3 3 4 4 4 4 4 4 5 5 6 6 6
5 5 6 6 7 8 8 7 6 5 5 4 3 3 2 1 1 1 1 1 1 1 1 2 2 2 2 2 3 3 2 2 2 3 3 4 4 4
5 4 5 5 6 6 8 9 8 8 6 4 4 2 2 1 1 2 1 1 1 1 0 1 1 1 2 2 2 2 2 1 1 1 1 2 2 3
5 5 5 5 5 5 6 7 6 6 5 3 3 2 2 1 2 2 1 2 2 2 1 1 1 1 2 2 2 1 1 1 1 1 1 1 1 2
5 5 5 5 6 7 7 7 6 5 6 7 6 5 5 5 4 3 3 2 1 1 1 0 1 1 1 2 2 2 2 2 2 2 2 2 2 2
4 4 6 5 6 6 5 5 5 3 3 4 5 6 5 5 4 2 2 2 1 0 0 0 0 1 1 1 2 2 2 3 3 3 3 3 3 2
2 2 3 5 6 6 5 4 3 2 3 4 4 4 4 3 2 2 1 1 1 0 0 1 0 0 1 2 2 2 2 2 2 2 3 4 4 3
2 1 1 4 5 5 4 4 4 4 3 3 3 3 3 2 2 2 2 1 0 0 1 1 1 1 1 1 2 2 2 2 2 2 3 3 3 4
2 2 3 4 4 4 4 4 3 3 3 2 2 1 1 2 2 1 2 1 2 2 1 1 1 1 1 2 2 2 2 2 2 2 3 3 2 2
2 2 4 4 3 3 3 2 2 2 1 1 0 1 1 2 2 2 1 1 1 2 2 1 0 1 1 2 2 2 2 3 2 3 3 3 3 2
3 2 2 2 2 1 1 1 1 1 1 1 1 1 1 1 2 2 1 1 1 2 2 2 1 1 2 2 2 3 3 3 3 3 2 3 3 3
4 2 1 1 1 1 0 0 0 0 0 0 0 0 0 1 1 1 1 1 1 2 2 2 2 2 1 2 3 3 3 3 3 2 2 3 4 3
3 2 1 2 2 1 1 1 1 1 1 1 1 1 1 1 1 1 1 1 1 2 2 2 2 1 3 4 3 3 3 3 2 2 2 3 4 4
2 2 2 2 2 2 1 1 1 1 1 1 1 1 1 1 1 1 1 1 2 2 2 2 2 2 3 4 4 3 3 3 3 3 3 3 4 4
3 2 2 2 2 2 2 1 1 1 1 1 1 1 1 1 1 2 2 2 2 2 3 3 3 4 3 2 3 3 3 3 4 3 3 3 4 3
3 3 2 2 2 2 2 2 1 1 1 1 1 1 1 1 2 2 2 2 2 2 3 3 3 1 1 2 4 4 4 4 3 5 6 5 3 4
3 3 3 2 2 2 2 2 2 1 1 1 1 1 1 1 2 2 2 2 2 2 3 3 2 2 2 3 4 4 5 5 4 3 3 4 7 9
Wind_Direction
26 45 106 189 157 183 175 178 172 182 227 225 28 14 49 63 60 72 74 79 84 87 89 88 86 82 79 77 75 72 67 64 63 58 54 49 43 38
36 56 53 46 85 151 188 199 184 177 182 146 113 55 63 78 75 70 72 77 76 79 82 84 84 83 82 81 77 72 68 66 66 63 58 54 51 52
38 56 50 47 63 70 103 123 140 150 145 113 76 73 77 72 66 69 73 68 73 74 76 79 80 79 79 79 76 71 68 64 61 59 59 61 61 58
45 53 47 49 55 62 76 80 90 108 138 137 111 78 76 75 71 75 68 73 76 74 76 76 76 73 73 73 71 66 62 59 57 56 56 57 58 58
51 54 51 63 66 67 79 84 85 92 98 120 108 71 66 72 73 70 63 46 62 68 70 68 71 71 69 68 69 68 65 61 57 54 51 50 50 49
50 52 55 68 83 88 88 88 93 93 95 103 100 86 72 63 72 74 61 42 44 49 55 62 62 63 60 61 61 63 62 61 57 53 48 44 43 44
53 51 58 69 78 86 97 98 101 98 100 99 100 96 82 80 72 67 85 67 51 34 35 38 39 41 40 38 44 48 55 59 60 54 49 47 43 40
59 50 56 58 72 82 88 92 99 109 114 109 107 109 105 102 80 97 95 77 59 20 36 34 35 29 19 24 31 37 37 47 55 54 50 46 40 33
58 55 60 56 60 76 81 78 74 76 91 114 117 123 136 151 131 108 84 81 59 26 45 37 18 358 343 360 11 23 15 356 353 17 40 29 18 15
56 57 65 55 58 76 83 76 68 62 72 88 107 108 96 116 145 141 146 110 73 50 41 25 352 321 328 322 328 323 309 305 291 267 254 266 287 313
49 52 63 65 60 78 87 85 72 55 62 75 78 76 77 82 96 98 100 113 79 42 30 344 319 312 309 312 326 321 308 297 286 273 270 268 274 278
52 46 54 66 68 76 87 91 86 61 60 62 56 51 58 70 84 97 128 121 101 11 25 245 315 323 308 314 327 331 329 311 300 292 294 288 280 272
78 51 42 65 74 76 81 86 102 102 80 75 61 48 44 46 49 51 72 129 125 140 200 186 200 256 283 304 313 321 325 319 311 294 286 288 274 254
117 95 69 81 83 78 80 79 84 89 82 73 60 41 27 18 14 21 41 55 36 243 199 176 190 211 252 290 299 314 314 306 302 300 302 297 275 255
128 125 106 94 89 79 70 71 76 79 83 77 59 17 348 340 356 14 30 40 42 37 53 201 225 223 246 272 290 300 308 305 296 300 299 293 283 272
102 83 82 82 82 77 66 61 68 83 105 98 17 346 357 14 23 19 17 12 18 4 22 29 303 212 245 266 272 287 291 294 304 300 295 289 276 255
127 87 70 69 71 64 64 52 49 62 69 39 47 28 13 13 10 10 19 21 14 338 339 357 351 300 268 270 275 280 290 294 294 301 292 292 283 273
130 122 132 140 158 177 171 71 48 36 283 229 141 347 332 337 352 10 18 6 340 326 329 339 344 342 324 266 235 273 288 293 302 298 287 290 297 296
136 160 178 192 199 201 202 205 231 260 239 200 210 235 251 281 313 327 333 331 321 317 319 328 333 331 325 320 304 228 270 298 305 302 286 274 286 301
174 190 206 212 210 207 209 217 234 245 229 232 235 237 234 246 267 282 284 293 296 307 315 315 299 284 280 296 301 299 251 261 287 299 302 290 280 286
197 207 214 214 212 208 209 211 215 232 246 241 243 244 239 246 264 271 276 282 277 288 293 297 299 287 271 272 285 297 295 249 246 271 291 293 298 302
200 206 212 212 210 209 207 207 212 222 235 239 249 251 246 242 258 272 277 280 277 280 285 298 318 320 275 277 290 301 307 314 283 253 248 247 277 294
203 204 205 209 212 205 199 200 207 222 234 250 257 261 259 258 265 269 276 283 291 298 302 313 326 311 295 288 292 296 302 310 315 316 302 263 252 266